|
NORAD ID: 16141 Int'l Code: 1985-094D
Perigee: 1,399.8 km
Apogee: 1,424.7 km
Inclination: 82.6 °
Period: 113.9 minutes
Semi major axis: 7783 km
Launch date: October 9, 1985
Source: Commonwealth of Independent States (former USSR) (CIS)
Two Line Element Set (TLE):
1 16141U 85094D 13140.86566030 .00000025 00000-0 75737-4 0 1242
2 16141 082.6124 057.8609 0015982 104.1317 320.4558 12.64342359274431
Source:
NASA's NSSDC Master Catalog entry for COSMOS 1693
|